Le nostre stazioni meteo in Italia

Pubblicità
Il mio iltempo24.it
S. Giovanni Teatino, Italia (16231): Temperatura & dewpoint: 30.05.2020 21:00:00 - 05.06.2020 21:00:00 (CEST)S. Giovanni Teatino, Italia (16231): velocità del vento: 30.05.2020 21:00:00 - 05.06.2020 21:00:00 (CEST)S. Giovanni Teatino, Italia (16231): direzione del vento: 30.05.2020 21:00:00 - 05.06.2020 21:00:00 (CEST)S. Giovanni Teatino, Italia (16231): reduced air pressure: 30.05.2020 21:00:00 - 05.06.2020 21:00:00 (CEST)S. Giovanni Teatino, Italia (16231): precipitazioni: 30.05.2020 21:00:00 - 05.06.2020 21:00:00 (CEST)
Data & Tempo tt [°C] td [°C] ff [km/h] ff [kn] dd ppp [hPa] rr [mm]
05.06.2020 21:00:00 - - - - - - -
05.06.2020 20:00:00 19,5 16,7 9 5 ENE 1002,0 -
05.06.2020 19:00:00 20,5 17,8 4 2 NNE 1001,5 -
05.06.2020 18:00:00 20,1 18,3 5 3 NE 1001,1 -
05.06.2020 17:00:00 20,1 18,5 5 3 N 1000,8 -
05.06.2020 16:00:00 20,1 19,0 13 7 NO 1000,8 -
05.06.2020 15:00:00 20,2 19,1 4 2 NO 1000,8 -
05.06.2020 14:00:00 20,0 19,6 4 2 O 1000,4 -
05.06.2020 13:00:00 18,8 18,4 4 2 ONO 1000,2 -
05.06.2020 12:00:00 18,2 17,5 9 5 O 1000,4 -
05.06.2020 11:00:00 19,5 17,9 18 10 ONO 999,5 -
05.06.2020 10:00:00 19,3 15,9 13 7 ESE 999,1 -
05.06.2020 09:00:00 19,0 15,8 8 4 S 998,6 -
05.06.2020 08:00:00 16,5 15,6 9 5 SSE 999,2 -
05.06.2020 07:00:00 20,7 15,4 11 6 SSO 997,9 -
05.06.2020 06:00:00 21,8 14,4 8 4 NE 996,9 -
05.06.2020 05:00:00 21,5 14,3 13 7 ESE 996,2 -
05.06.2020 04:00:00 21,1 12,7 16 9 E 997,1 -
05.06.2020 03:00:00 20,7 12,6 9 5 E 998,6 -
05.06.2020 02:00:00 20,1 12,3 15 8 E 999,1 0,0
05.06.2020 01:00:00 20,6 12,3 21 11 ESE 999,6 -
05.06.2020 00:00:00 21,7 12,5 8 4 ESE 1000,9 -
04.06.2020 23:00:00 21,9 12,7 13 7 SSO 1001,4 -
04.06.2020 22:00:00 22,6 12,2 4 2 N 1001,9 -
04.06.2020 21:00:00 23,3 12,3 4 2 ENE 1001,3 -
04.06.2020 20:00:00 24,4 12,6 13 7 E 1001,2 0,0
04.06.2020 19:00:00 24,9 16,0 11 6 OSO 1001,4 -
04.06.2020 18:00:00 23,7 15,7 21 11 E 1001,7 -
04.06.2020 17:00:00 23,2 14,7 15 8 ENE 1002,5 -
04.06.2020 16:00:00 24,4 15,3 18 10 ENE 1003,3 -
04.06.2020 15:00:00 23,9 13,7 13 7 ENE 1004,1 -
04.06.2020 14:00:00 22,8 14,3 5 3 S 1005,1 0,0
04.06.2020 13:00:00 21,9 12,9 11 6 S 1005,0 -
04.06.2020 12:00:00 22,0 11,4 15 8 S 1005,3 -
04.06.2020 11:00:00 23,8 10,8 29 16 SSO 1005,3 -
04.06.2020 10:00:00 23,1 13,2 5 3 S 1005,5 -
04.06.2020 09:00:00 21,7 11,4 21 11 SSO 1005,6 -
04.06.2020 08:00:00 20,9 10,9 15 8 S 1005,3 0,0
04.06.2020 07:00:00 19,8 10,4 21 11 S 1005,3 -
04.06.2020 06:00:00 20,3 9,8 28 15 SSO 1005,4 -
04.06.2020 05:00:00 20,4 10,2 15 8 SSO 1005,4 -
04.06.2020 04:00:00 20,2 11,4 9 5 SSO 1006,2 -
04.06.2020 03:00:00 20,4 11,8 21 11 E 1006,3 -
04.06.2020 02:00:00 20,1 12,5 22 12 SSO 1006,6 0,0
04.06.2020 01:00:00 20,6 12,5 11 6 SSO 1006,9 -
04.06.2020 00:00:00 21,3 12,7 18 10 SSO 1007,4 -
03.06.2020 23:00:00 21,5 12,8 22 12 SSO 1007,7 -
03.06.2020 22:00:00 21,2 12,6 9 5 SO 1007,7 -
03.06.2020 21:00:00 22,0 12,5 9 5 SO 1007,5 -
03.06.2020 20:00:00 22,1 12,6 8 4 S 1007,2 0,0
03.06.2020 19:00:00 23,7 12,9 9 5 SSE 1006,7 -
03.06.2020 18:00:00 24,8 14,2 9 5 SO 1006,9 -
03.06.2020 17:00:00 23,3 14,2 18 10 SO 1007,9 -
03.06.2020 16:00:00 23,7 12,6 11 6 E 1007,7 -
03.06.2020 15:00:00 25,0 14,7 16 9 ENE 1007,7 -
03.06.2020 14:00:00 24,6 13,4 22 12 ENE 1008,1 0,0
03.06.2020 13:00:00 24,6 14,6 21 11 ENE 1008,5 -
03.06.2020 12:00:00 24,0 14,0 8 4 ENE 1009,2 -
03.06.2020 11:00:00 25,0 14,1 5 3 ENE 1009,2 -
03.06.2020 10:00:00 23,1 15,8 4 2 SSO 1009,8 -
03.06.2020 09:00:00 20,4 14,4 8 4 SSO 1010,2 -
03.06.2020 08:00:00 18,6 12,9 15 8 SO 1010,2 0,0
03.06.2020 07:00:00 17,3 11,7 11 6 SSO 1010,2 -
03.06.2020 06:00:00 16,6 11,1 11 6 NNE 1010,1 -
03.06.2020 05:00:00 16,5 10,7 11 6 SO 1010,3 -
03.06.2020 04:00:00 16,8 10,4 13 7 SO 1010,4 -
03.06.2020 03:00:00 17,7 10,3 9 5 SSO 1010,9 -
03.06.2020 02:00:00 17,7 10,0 5 3 SSO 1011,3 0,0
03.06.2020 01:00:00 17,7 10,5 8 4 SO 1011,8 -
03.06.2020 00:00:00 18,1 10,9 8 4 OSO 1011,8 -
02.06.2020 23:00:00 18,8 10,6 5 3 SSO 1012,0 -
02.06.2020 22:00:00 19,9 9,4 5 3 S 1012,0 -
02.06.2020 21:00:00 20,1 11,0 2 1 E 1011,5 -
02.06.2020 20:00:00 21,0 11,0 4 2 ENE 1011,5 0,0
02.06.2020 19:00:00 21,6 11,6 5 3 ENE 1011,5 -
02.06.2020 18:00:00 22,5 11,2 8 4 NE 1011,8 -
02.06.2020 17:00:00 22,3 11,3 13 7 NNE 1012,3 -
02.06.2020 16:00:00 23,3 12,6 9 5 NNE 1012,6 -
02.06.2020 15:00:00 23,7 12,6 5 3 N 1013,3 -
02.06.2020 14:00:00 23,6 12,8 5 3 N 1013,9 0,0
02.06.2020 13:00:00 22,5 12,7 15 8 N 1014,5 -
02.06.2020 12:00:00 22,5 12,7 8 4 NNO 1014,9 -
02.06.2020 11:00:00 22,0 13,0 4 2 ONO 1015,0 -
02.06.2020 10:00:00 19,7 13,1 9 5 O 1015,2 -
02.06.2020 09:00:00 17,8 13,2 5 3 SO 1015,6 -
02.06.2020 08:00:00 16,3 11,6 8 4 SO 1015,8 0,0
02.06.2020 07:00:00 14,5 11,2 13 7 SO 1015,8 -
02.06.2020 06:00:00 14,8 11,0 11 6 SO 1015,6 -
02.06.2020 05:00:00 14,2 12,0 8 4 SO 1015,8 -
02.06.2020 04:00:00 13,9 11,4 9 5 OSO 1016,3 -
02.06.2020 03:00:00 14,6 11,7 15 8 SO 1016,4 -
02.06.2020 02:00:00 14,7 12,8 5 3 SO 1017,1 0,0
02.06.2020 01:00:00 14,9 13,0 4 2 OSO 1017,1 -
02.06.2020 00:00:00 15,1 12,8 9 5 OSO 1017,0 -
01.06.2020 23:00:00 15,6 12,8 5 3 OSO 1017,0 -
01.06.2020 22:00:00 15,8 12,8 8 4 OSO 1017,1 -
01.06.2020 21:00:00 16,7 12,0 4 2 O 1016,7 -
01.06.2020 20:00:00 18,2 12,4 8 4 ONO 1016,5 0,0
01.06.2020 19:00:00 19,9 12,8 9 5 ONO 1016,4 -
01.06.2020 18:00:00 20,1 12,5 8 4 O 1016,5 -
01.06.2020 17:00:00 19,8 13,4 8 4 NO 1016,9 -
01.06.2020 16:00:00 20,2 14,0 9 5 NO 1016,8 -
01.06.2020 15:00:00 20,3 13,7 9 5 NO 1016,8 -
01.06.2020 14:00:00 19,9 14,0 18 10 ONO 1017,1 0,0
01.06.2020 13:00:00 19,2 12,8 11 6 ONO 1017,1 -
01.06.2020 12:00:00 18,9 12,1 15 8 ONO 1017,2 -
01.06.2020 11:00:00 17,9 12,1 18 10 O 1016,9 -
01.06.2020 10:00:00 17,8 11,5 18 10 ONO 1016,9 -
01.06.2020 09:00:00 16,8 14,4 9 5 O 1016,9 -
01.06.2020 08:00:00 14,4 11,9 9 5 OSO 1016,7 0,0
01.06.2020 07:00:00 13,4 11,3 8 4 OSO 1016,5 -
01.06.2020 06:00:00 13,3 11,7 5 3 SO 1016,1 -
01.06.2020 05:00:00 13,8 12,2 8 4 SO 1015,9 -
01.06.2020 04:00:00 14,0 12,7 9 5 SO 1016,0 -
01.06.2020 03:00:00 13,9 12,6 5 3 OSO 1016,2 -
01.06.2020 02:00:00 13,6 12,5 11 6 SO 1016,3 0,0
01.06.2020 01:00:00 14,0 12,7 9 5 SO 1016,4 -
01.06.2020 00:00:00 13,6 12,9 9 5 OSO 1016,2 -
31.05.2020 23:00:00 14,0 13,0 13 7 SO 1016,1 -
31.05.2020 22:00:00 14,3 12,8 9 5 SO 1015,7 -
31.05.2020 21:00:00 14,0 12,5 8 4 SO 1015,4 -
31.05.2020 20:00:00 14,3 12,1 13 7 SSO 1015,4 0,0
31.05.2020 19:00:00 16,3 13,7 4 2 SO 1015,2 -
31.05.2020 18:00:00 17,8 14,0 11 6 OSO 1014,8 -
31.05.2020 17:00:00 17,9 9,7 2 1 NNE 1015,1 -
31.05.2020 16:00:00 18,8 10,8 16 9 ENE 1015,0 -
31.05.2020 15:00:00 19,4 12,4 11 6 NE 1015,0 -
31.05.2020 14:00:00 18,5 12,2 11 6 NNE 1015,3 0,0
31.05.2020 13:00:00 19,5 13,6 4 2 NNO 1015,3 -
31.05.2020 12:00:00 18,8 14,2 4 2 E 1015,8 -
31.05.2020 11:00:00 18,1 15,5 5 3 NO 1016,1 -
31.05.2020 10:00:00 18,2 15,9 8 4 NO 1015,9 -
31.05.2020 09:00:00 16,1 13,7 5 3 O 1016,0 -
31.05.2020 08:00:00 14,4 12,4 5 3 SO 1015,8 0,0
31.05.2020 07:00:00 13,3 11,8 5 3 SO 1015,6 -
31.05.2020 06:00:00 12,9 11,8 5 3 SO 1015,5 -
31.05.2020 05:00:00 13,1 12,0 9 5 SO 1015,4 -
31.05.2020 04:00:00 13,8 12,8 8 4 SSO 1015,7 -
31.05.2020 03:00:00 13,8 12,8 9 5 SO 1015,9 -
31.05.2020 02:00:00 13,5 12,5 9 5 SO 1016,1 0,0
31.05.2020 01:00:00 13,8 12,8 8 4 SO 1016,4 -
31.05.2020 00:00:00 13,9 12,6 8 4 SO 1016,6 -
30.05.2020 23:00:00 14,6 12,4 0 0 N 1016,3 -
30.05.2020 22:00:00 15,0 12,1 0 0 N 1016,0 -
30.05.2020 21:00:00 15,4 11,7 4 2 NE 1015,4 -

tt = Temperatura
td = dewpoint
ff = velocità del vento
dd = direzione del vento
ppp = reduced air pressure
rr = precipitazioni

Stazioni seguenti

WeatherPro
AMSI
MeteoEarth